Полехатум

Turkmenistan     35˚58′01″N   61˚07′01″E
temp.,
°C
wind,
m/s
gust,
m/s
humid.,
%
clouds,
%
prec.,
mm/h
press.,
hPa
HPBL,
m
1 december, tue
tue100:30+3˚n116396 0.0 1026180
03:30+3˚sse116681 0.0 102622
06:30+3˚se11680 0.0 102722
09:30+7˚ene11520 0.0 1026256
12:30+10˚ene22420 0.0 1023444
15:30+10˚ne22421 0.0 1022440
18:30+7˚nne225130 0.0 102467
21:30+7˚n225065 0.0 1025152
2 december, wed
wed200:30+6˚n115390 0.0 102453
03:30+4˚ene016152 0.0 102522
06:30+4˚n01631 0.0 102622
09:30+8˚nne114614 0.0 1026261
12:30+10˚ne21410 0.0 1024477
15:30+10˚nne22410 0.0 1023555
18:30+8˚n12470 0.0 102622
21:30+6˚nnw12520 0.0 102622
3 december, thu
thu300:30+5˚nw11570 0.0 102622
03:30+4˚n115845 0.0 102522
06:30+3˚n115920 0.0 102722
09:30+7˚n224348 0.0 1027320
12:30+8˚n3344100 0.0 1025518
15:30+7˚n5546100 0.0 1026815
18:30+4˚nne1184100 0.8 1029224
21:30+4˚nnw2291100 1.0 1029210
4 december, fri
fri400:30+4˚n3391100 0.2 1029286
03:30+4˚nnw1277100 0.2 1029279
06:30+4˚nnw127194 0.0 1030176
09:30+5˚n225786 0.0 1032451
12:30+7˚nne224932 0.0 1029549
15:30+7˚ne224717 0.0 1029539
18:30+5˚ne11520 0.0 103025
21:30+4˚ne11560 0.0 102922
5 december, sat
sat500:30+3˚nne00590 0.0 102822
03:30+2˚nne11630 0.0 102722
06:30+1˚nnw016550 0.0 102822
09:30+5˚ne105075 0.0 1027272
12:30+7˚ne22480 0.0 1024539
15:30+7˚nne224916 0.0 1023627
18:30+5˚nne126099 0.0 102524
21:30+4˚nnw126056 0.0 102622